Regional Weather Roundup
Issued by NWS

Home | Current Version | Previous Version | Text Only | Print | Product List | Glossary Off
Versions: 1 2 3 4 5 6 7 8 9 10 11 12 13 14 15 16 17 18 19 20 21 22 23 24 25 26 27 28 29 30 31 32 33 34 35 36 37 38 39 40 41 42 43 44 45 46 47 48 49 50

623
ASUS43 KDMX 121906
RWRIA

WEATHER ROUNDUP FOR IOWA
NATIONAL WEATHER SERVICE DES MOINES IA
100 PM CST TUE DEC 12 2017

NOTE: "FAIR" INDICATES FEW OR NO CLOUDS BELOW 12,000 FEET WITH NO
SIGNIFICANT WEATHER AND/OR OBSTRUCTIONS TO VISIBILITY.

* - THESE STATIONS ARE NOT NWS STATIONS...THUS NOT UNDER NWS
QUALITY CONTROL.  THEY ALSO DO NOT REPORT WEATHER SUCH
AS PRECIPITATION OR FOG.

IAZ001>003-012>014-020>022-031>034-043>046-122000-
   NORTHWEST IOWA

CITY           SKY/WX    TMP DP  RH WIND       PRES   REMARKS
CARROLL *      MOSUNNY   32  19  59 W9        30.14F WCI  24
CHEROKEE *     CLOUDY    34  23  64 W7        30.13F WCI  28
DENISON *      CLOUDY    32  18  55 SW10      30.17F WCI  24
LE MARS *      MOSUNNY   36  25  64 S9        30.12F WCI  29
ORANGE CITY *  SUNNY     36  27  69 W13       30.10F WCI  27
SHELDON *      CLOUDY    32  25  74 SW13      30.08F WCI  22
SIOUX CITY     MOSUNNY   37  26  64 SW9       30.14F WCI  30
SPENCER        CLOUDY    31  20  63 SW14      30.09F WCI  21
STORM LAKE *   CLOUDY    30  18  59 W15       30.12F WCI  19
$$

IAZ055>058-069>071-079>083-090>094-122000-
   SOUTHWEST IOWA

CITY           SKY/WX    TMP DP  RH WIND       PRES   REMARKS
ATLANTIC *     SUNNY     32  18  55 W7        30.18F WCI  26
AUDUBON *      CLOUDY    30  19  64 W6        30.17F WCI  24
CLARINDA *     SUNNY     32  18  55 VRB7      30.25F WCI  26
COUNCIL BLFS * MOSUNNY   34  21  60 SW10      30.19F WCI  26
CRESTON *      SUNNY     30  14  51 W10G16    30.19F WCI  21
HARLAN  *      CLOUDY    34  19  55 SW8       30.21F WCI  27
LAMONI         SUNNY     31   9  39 W12       30.19F WCI  22
RED OAK *      SUNNY     34  19  55 SW8       30.21F WCI  27
SHENANDOAH *   SUNNY     34  19  55 SW3       30.24F
$$

IAZ047>049-059>061-072>074-084-122000-
   CENTRAL IOWA

CITY           SKY/WX    TMP DP  RH WIND       PRES   REMARKS
AMES           SUNNY     28  11  48 W13       30.17F WCI  17
ANKENY *       SUNNY     28   9  43 NW9       30.18F WCI  20
BOONE *        SUNNY     28  12  50 W15       30.14F WCI  17
CHARITON *     SUNNY     30   5  34 W12       30.18F WCI  21
DES MOINES     PTSUNNY   29   7  39 W9G16     30.17F WCI  20
GRINNELL*      SUNNY     27   2  34 W10       30.17F WCI  17
KNOXVILLE *    SUNNY     28   1  31 W13       30.17F WCI  18
MARSHALLTOWN   SUNNY     27   5  39 W15       30.14F WCI  15
NEWTON *       SUNNY     27   3  36 W13       30.17F WCI  16
PELLA *        SUNNY     28   5  38 W9        30.18F WCI  19
PERRY *          N/A     32  14  47 W13       30.17F WCI  22
$$

IAZ004>006-015-016-023>025-035-036-122000-
   NORTH CENTRAL IOWA

CITY           SKY/WX    TMP DP  RH WIND       PRES   REMARKS
ALGONA *       PTSUNNY   32  21  64 W13       30.09F WCI  22
CLARION *      SUNNY     28  14  54 W10G16    30.12F WCI  19
ESTHERVILLE    CLOUDY    29  21  72 W15       30.07F WCI  18
FORT DODGE *   SUNNY     30  18  60 SW7       30.13F WCI  23
MASON CITY     CLOUDY    25  12  58 W8        30.12F WCI  16
FOREST CITY *  CLOUDY    28  18  64 W8        30.10F WCI  20
WEBSTER CITY * SUNNY     30  14  51 W13       30.12F WCI  20
IOWA FALLS *     N/A     26   8  46 W12       30.15F WCI  16
$$

IAZ007>011-017>019-026>030-037>042-050>054-066-122000-
   NORTHEAST IOWA

CITY           SKY/WX    TMP DP  RH WIND       PRES   REMARKS
CEDAR RAPIDS   SUNNY     25   4  40 W13       30.13F WCI  14
CHARLES CITY * CLOUDY    23   7  50 W12       30.13F WCI  12
CLINTON *      SUNNY     25  11  55 NW13      30.12F WCI  14
DECORAH *      MOSUNNY   19   5  53 W9        30.09F WCI   9
DUBUQUE        SUNNY     19   6  57 NW14      30.10F WCI   6
MONTICELLO *   SUNNY     25   5  42 NW13      30.12F WCI  13
OELWEIN *      SUNNY     23   5  46 W13G18    30.13S WCI  11
WATERLOO       SUNNY     24   1  36 W12       30.15F WCI  13
$$

IAZ064-065-067-068-078-122000-
   EAST CENTRAL IOWA

CITY           SKY/WX    TMP DP  RH WIND       PRES   REMARKS
DAVENPORT      SUNNY     25   7  46 NW15      30.15F WCI  13
IOWA CITY      SUNNY     27   4  37 W14       30.17F WCI  16
MT. PLEASANT * SUNNY     28   3  35 W12       30.17F WCI  17
MUSCATINE *    SUNNY     28   3  34 W13       30.17F WCI  18
QUAD CITIES    SUNNY     28   6  39 NW13      30.13F WCI  17
$$

IAZ062-063-075>077-085>089-095>099-122000-
   SOUTHEAST IOWA

CITY           SKY/WX    TMP DP  RH WIND       PRES   REMARKS
BURLINGTON     SUNNY     28   5  37 W12       30.16F WCI  18
FAIRFIELD *    SUNNY     28   0  29 W14       30.16F WCI  17
FORT MADISON * SUNNY     28   7  40 W13       30.17F WCI  18
KEOKUK *       SUNNY     28   3  34 W10       30.17F WCI  19
OSKALOOSA *      N/A     28   2  32 W14       30.18F WCI  17
OTTUMWA        SUNNY     29   3  33 W10       30.17F WCI  20
WASHINGTON *   SUNNY     28   7  40 NW14      30.17F WCI  17
$$

ABBREVIATIONS USED IN REMARKS
   TC - TEMPERATURES IN CELSIUS
  WCI - WIND CHILL INDEX
   HX - HEAT INDEX
  VSB - VISIBILITY
$$





USA.gov is the U.S. government's official web portal to all federal, state and local government web resources and services.